KC4KQE Weather Reports


Display with metric or nautical units.
time (UTC)temp
F
wind
direction
speed
MPH
gust
MPH
rain 1hr
in
rain 24hr
in
rain mn
in
humidity
%
barometer
mb
20260902230416 99 263 11.0 13.0 0.00 0.00 0.00 27 1012.5
20260902225914 99 258 8.0 11.0 0.00 0.00 0.00 27 1012.6
20260902225414 99 273 4.0 11.0 0.00 0.00 0.00 28 1012.6
20260902224914 98 277 7.0 11.0 0.00 0.00 0.00 29 1012.7
20260902224414 97 238 1.0 5.0 0.00 0.00 0.00 29 1012.8
20260902223914 98 250 2.0 8.0 0.00 0.00 0.00 28 1012.9
20260902223414 99 223 6.0 13.0 0.00 0.00 0.00 28 1012.9
20260902222915 99 195 7.0 9.0 0.00 0.00 0.00 30 1012.9
20260902222414 99 192 3.0 9.0 0.00 0.00 0.00 29 1013.0
20260902221914 99 254 3.0 10.0 0.00 0.00 0.00 28 1013.0
20260902221416 99 244 7.0 9.0 0.00 0.00 0.00 29 1013.1
20260902220914 98 288 4.0 9.0 0.00 0.00 0.00 30 1013.1
20260902220416 98 286 2.0 7.0 0.00 0.00 0.00 30 1013.2
20260902215916 98 252 5.0 8.0 0.00 0.00 0.00 29 1013.3
20260902215414 99 277 6.0 13.0 0.00 0.00 0.00 30 1013.3
20260902214914 98 245 9.0 13.0 0.00 0.00 0.00 30 1013.3
20260902214415 98 225 3.0 15.0 0.00 0.00 0.00 30 1013.4
20260902213915 99 285 2.0 9.0 0.00 0.00 0.00 30 1013.4
20260902213414 99 276 5.0 9.0 0.00 0.00 0.00 30 1013.5
20260902212914 99 246 4.0 11.0 0.00 0.00 0.00 30 1013.6
20260902212415 98 271 4.0 10.0 0.00 0.00 0.00 31 1013.6
20260902211916 98 207 7.0 9.0 0.00 0.00 0.00 32 1013.6
20260902211414 98 240 6.0 12.0 0.00 0.00 0.00 32 1013.7
20260902210914 98 228 4.0 11.0 0.00 0.00 0.00 31 1013.8
20260902210415 98 182 0.0 10.0 0.00 0.00 0.00 32 1013.7
20260902205914 98 228 5.0 13.0 0.00 0.00 0.00 32 1013.9
20260902205414 98 221 4.0 10.0 0.00 0.00 0.00 33 1013.9
20260902204914 97 208 9.0 11.0 0.00 0.00 0.00 35 1014.0
20260902204414 96 240 2.0 5.0 0.00 0.00 0.00 35 1014.1
20260902203914 96 124 1.0 9.0 0.00 0.00 0.00 35 1014.2
20260902203416 97 190 4.0 9.0 0.00 0.00 0.00 35 1014.3
20260902202914 95 232 4.0 8.0 0.00 0.00 0.00 37 1014.4
20260902202414 96 182 2.0 6.0 0.00 0.00 0.00 36 1014.5
20260902201914 97 227 3.0 10.0 0.00 0.00 0.00 36 1014.6
20260902201416 97 223 3.0 9.0 0.00 0.00 0.00 37 1014.7
20260902200914 96 201 2.0 10.0 0.00 0.00 0.00 37 1014.8
20260902200414 96 191 6.0 7.0 0.00 0.00 0.00 38 1014.8
20260902195915 95 153 3.0 6.0 0.00 0.00 0.00 39 1014.9
20260902195415 95 186 3.0 9.0 0.00 0.00 0.00 39 1015.0
20260902194914 95 253 7.0 13.0 0.00 0.00 0.00 38 1015.1
20260902194414 96 267 10.0 10.0 0.00 0.00 0.00 38 1015.1
20260902193914 96 240 4.0 6.0 0.00 0.00 0.00 38 1015.2
20260902193414 96 218 3.0 7.0 0.00 0.00 0.00 38 1015.2
20260902192914 95 196 5.0 7.0 0.00 0.00 0.00 38 1015.2
20260902192414 95 216 4.0 10.0 0.00 0.00 0.00 37 1015.3
20260902191914 95 217 3.0 7.0 0.00 0.00 0.00 38 1015.4
20260902191414 94 209 2.0 5.0 0.00 0.00 0.00 41 1015.5
20260902190914 94 163 3.0 5.0 0.00 0.00 0.00 39 1015.5
20260902190414 95 190 3.0 9.0 0.00 0.00 0.00 39 1015.6
20260902185914 95 239 3.0 11.0 0.00 0.00 0.00 39 1015.7
20260902185414 95 244 5.0 12.0 0.00 0.00 0.00 39 1015.7
20260902184916 94 231 6.0 9.0 0.00 0.00 0.00 40 1015.7
20260902184414 94 207 3.0 9.0 0.00 0.00 0.00 40 1015.9
20260902183914 94 212 8.0 10.0 0.00 0.00 0.00 40 1015.9
20260902183414 94 189 7.0 9.0 0.00 0.00 0.00 42 1015.9
20260902182915 94 196 8.0 8.0 0.00 0.00 0.00 42 1016.0
20260902182414 93 141 4.0 4.0 0.00 0.00 0.00 43 1016.1
20260902181914 93 173 0.0 8.0 0.00 0.00 0.00 42 1016.2
20260902181414 93 156 2.0 8.0 0.00 0.00 0.00 41 1016.2
20260902180915 93 185 7.0 8.0 0.00 0.00 0.00 41 1016.3
20260902180414 93 226 1.0 6.0 0.00 0.00 0.00 41 1016.3
20260902175916 93 229 6.0 8.0 0.00 0.00 0.00 41 1016.4
20260902175414 92 227 5.0 5.0 0.00 0.00 0.00 42 1016.4
20260902174914 92 284 1.0 6.0 0.00 0.00 0.00 42 1016.4
20260902174414 92 237 6.0 9.0 0.00 0.00 0.00 42 1016.5
20260902173914 92 217 7.0 8.0 0.00 0.00 0.00 42 1016.4
20260902173414 92 198 1.0 8.0 0.00 0.00 0.00 43 1016.5
20260902172914 92 202 1.0 9.0 0.00 0.00 0.00 44 1016.5
20260902172414 91 192 7.0 7.0 0.00 0.00 0.00 45 1016.5
20260902171914 91 192 6.0 6.0 0.00 0.00 0.00 46 1016.5
20260902171414 91 161 1.0 11.0 0.00 0.00 0.00 45 1016.5
20260902170914 91 159 11.0 9.0 0.00 0.00 0.00 47 1016.5
20260902170415 90 140 2.0 7.0 0.00 0.00 0.00 48 1016.5
20260902165914 90 103 3.0 5.0 0.00 0.00 0.00 47 1016.4
20260902165414 90 173 1.0 7.0 0.00 0.00 0.00 48 1016.5
20260902164914 90 191 4.0 9.0 0.00 0.00 0.00 49 1016.5
20260902164414 89 101 2.0 9.0 0.00 0.00 0.00 50 1016.5
20260902163914 89 140 5.0 9.0 0.00 0.00 0.00 50 1016.4
20260902163414 89 150 2.0 7.0 0.00 0.00 0.00 50 1016.4
20260902162914 89 138 3.0 7.0 0.00 0.00 0.00 52 1016.4
20260902162414 88 166 2.0 8.0 0.00 0.00 0.00 52 1016.4
20260902161914 88 134 4.0 10.0 0.00 0.00 0.00 51 1016.4
20260902161414 88 105 10.0 10.0 0.00 0.00 0.00 53 1016.5
20260902160914 87 129 3.0 9.0 0.00 0.00 0.00 54 1016.4
20260902160414 87 109 3.0 8.0 0.00 0.00 0.00 53 1016.4
20260902155915 87 130 3.0 8.0 0.00 0.00 0.00 53 1016.5
20260902155415 87 159 3.0 5.0 0.00 0.00 0.00 54 1016.5
20260902154914 87 134 4.0 6.0 0.00 0.00 0.00 55 1016.5
20260902154414 87 118 1.0 8.0 0.00 0.00 0.00 55 1016.4
20260902153914 86 130 2.0 7.0 0.00 0.00 0.00 55 1016.3
20260902153414 86 168 6.0 7.0 0.00 0.00 0.00 55 1016.3
20260902152914 86 130 2.0 6.0 0.00 0.00 0.00 56 1016.4
20260902152415 86 105 2.0 8.0 0.00 0.00 0.00 55 1016.3
20260902151914 86 198 3.0 7.0 0.00 0.00 0.00 56 1016.3
20260902151420 86 142 5.0 6.0 0.00 0.00 0.00 55 1016.3
20260902150914 85 157 5.0 8.0 0.00 0.00 0.00 55 1016.3
20260902150414 85 178 4.0 10.0 0.00 0.00 0.00 55 1016.2
20260902145914 85 140 5.0 8.0 0.00 0.00 0.00 55 1016.1
20260902145414 85 163 4.0 5.0 0.00 0.00 0.00 55 1016.1
20260902144914 85 148 1.0 5.0 0.00 0.00 0.00 55 1016.1
20260902144415 85 135 1.0 5.0 0.00 0.00 0.00 55 1016.1
20260902143914 84 150 4.0 5.0 0.00 0.00 0.00 56 1016.1
20260902143414 84 123 3.0 7.0 0.00 0.00 0.00 56 1016.1
20260902142914 84 121 4.0 5.0 0.00 0.00 0.00 57 1016.0
20260902142414 83 146 2.0 5.0 0.00 0.00 0.00 58 1015.9
20260902141914 83 124 1.0 5.0 0.00 0.00 0.00 58 1015.8
20260902141414 83 130 0.0 4.0 0.00 0.00 0.00 59 1015.7
20260902140914 82 124 1.0 3.0 0.00 0.00 0.00 60 1015.6
20260902140415 82 136 3.0 5.0 0.00 0.00 0.00 61 1015.6
20260902135914 81 148 2.0 6.0 0.00 0.00 0.00 62 1015.6
20260902135414 81 164 3.0 8.0 0.00 0.00 0.00 63 1015.5
20260902134915 80 135 1.0 5.0 0.00 0.00 0.00 64 1015.4
20260902134414 79 179 3.0 3.0 0.00 0.00 0.00 67 1015.5
20260902133914 79 146 1.0 2.0 0.00 0.00 0.00 67 1015.5
20260902133414 79 116 0.0 2.0 0.00 0.00 0.00 68 1015.4
20260902132915 79 116 1.0 2.0 0.00 0.00 0.00 68 1015.4
20260902132414 79 116 1.0 2.0 0.00 0.00 0.00 67 1015.3
20260902131914 79 116 0.0 3.0 0.00 0.00 0.00 66 1015.3
20260902131414 79 122 1.0 2.0 0.00 0.00 0.00 67 1015.2
20260902130914 78 130 2.0 3.0 0.00 0.00 0.00 70 1015.1
20260902130416 78 132 1.0 3.0 0.00 0.00 0.00 73 1015.1
20260902125914 77 154 1.0 2.0 0.00 0.00 0.00 77 1015.1
20260902125415 77 154 0.0 0.0 0.00 0.00 0.00 77 1015.1
20260902124914 77 154 0.0 0.0 0.00 0.00 0.00 77 1015.0
20260902124414 77 154 0.0 0.0 0.00 0.00 0.00 75 1014.9
20260902123915 77 154 0.0 0.0 0.00 0.00 0.00 74 1014.9
20260902123414 77 154 0.0 1.0 0.00 0.00 0.00 74 1014.9
20260902122914 78 158 1.0 1.0 0.00 0.00 0.00 72 1015.0
20260902122415 78 158 0.0 1.0 0.00 0.00 0.00 72 1015.0
20260902121914 78 158 1.0 3.0 0.00 0.00 0.00 71 1014.9
20260902121414 78 158 0.0 0.0 0.00 0.00 0.00 71 1014.8
20260902120914 78 158 0.0 0.0 0.00 0.00 0.00 70 1014.7
20260902120415 78 158 0.0 0.0 0.00 0.00 0.00 71 1014.7
20260902115914 78 89 0.0 0.0 0.00 0.00 0.00 73 1014.7
20260902115414 79 89 0.0 0.0 0.00 0.00 0.00 70 1014.7
20260902114914 79 89 0.0 0.0 0.00 0.00 0.00 70 1014.7
20260902114414 79 89 0.0 0.0 0.00 0.00 0.00 69 1014.7
20260902113915 79 89 0.0 0.0 0.00 0.00 0.00 68 1014.8
20260902113414 79 89 0.0 0.0 0.00 0.00 0.00 68 1014.7
20260902112914 79 89 0.0 0.0 0.00 0.00 0.00 66 1014.7
20260902112414 79 89 0.0 0.0 0.00 0.00 0.00 66 1014.7
20260902111914 79 89 0.0 2.0 0.00 0.00 0.00 69 1014.7
20260902111414 79 89 0.0 1.0 0.00 0.00 0.00 66 1014.6
20260902110914 80 89 1.0 2.0 0.00 0.00 0.00 67 1014.6
20260902110414 80 101 0.0 0.0 0.00 0.00 0.00 65 1014.6
20260902105914 80 101 0.0 1.0 0.00 0.00 0.00 65 1014.6
20260902105414 81 101 1.0 2.0 0.00 0.00 0.00 63 1014.7
20260902104914 81 101 1.0 1.0 0.00 0.00 0.00 62 1014.7
20260902104416 81 101 0.0 0.0 0.00 0.00 0.00 59 1014.7
20260902103914 82 101 0.0 1.0 0.00 0.00 0.00 59 1014.7
20260902103414 82 101 1.0 4.0 0.00 0.00 0.00 57 1014.7
20260902102914 82 114 3.0 5.0 0.00 0.00 0.00 57 1014.6
20260902102414 82 102 1.0 5.0 0.00 0.00 0.00 58 1014.7
20260902101914 82 111 4.0 6.0 0.00 0.00 0.00 58 1014.7
20260902101414 82 107 2.0 4.0 0.00 0.00 0.00 59 1014.7
20260902100914 82 126 2.0 3.0 0.00 0.00 0.00 60 1014.7
20260902100414 81 140 1.0 2.0 0.00 0.00 0.00 63 1014.7
20260902095914 81 136 1.0 2.0 0.00 0.00 0.00 63 1014.7
20260902095414 81 136 0.0 2.0 0.00 0.00 0.00 65 1014.7
20260902094914 81 136 0.0 1.0 0.00 0.00 0.00 64 1014.7
20260902094414 81 136 0.0 1.0 0.00 0.00 0.00 64 1014.7
20260902093914 81 136 1.0 1.0 0.00 0.00 0.00 64 1014.7
20260902093414 80 139 0.0 2.0 0.00 0.00 0.00 67 1014.7
20260902092915 80 136 0.0 2.0 0.00 0.00 0.00 68 1014.7
20260902092416 80 136 1.0 1.0 0.00 0.00 0.00 69 1014.6
20260902091914 80 223 0.0 0.0 0.00 0.00 0.00 68 1014.6
20260902091415 81 223 0.0 0.0 0.00 0.00 0.00 67 1014.6
20260902090914 81 223 0.0 1.0 0.00 0.00 0.00 65 1014.6
20260902090414 81 223 1.0 2.0 0.00 0.00 0.00 64 1014.6
20260902085919 82 223 0.0 1.0 0.00 0.00 0.00 63 1014.5
20260902085414 82 223 0.0 2.0 0.00 0.00 0.00 62 1014.6
20260902084920 82 98 0.0 0.0 0.00 0.00 0.00 60 1014.6
20260902084415 83 98 0.0 1.0 0.00 0.00 0.00 59 1014.6
20260902083919 83 98 1.0 1.0 0.00 0.00 0.00 59 1014.7
20260902083414 83 98 1.0 2.0 0.00 0.00 0.00 58 1014.7
20260902082914 83 98 0.0 1.0 0.00 0.00 0.00 58 1014.7
20260902082414 83 98 0.0 1.0 0.00 0.00 0.00 57 1014.7
20260902081914 84 98 1.0 3.0 0.00 0.00 0.00 56 1014.7
20260902081414 84 92 2.0 3.0 0.00 0.00 0.00 55 1014.7
20260902080914 84 145 0.0 3.0 0.00 0.00 0.00 56 1014.7
20260902080414 83 119 2.0 2.0 0.00 0.00 0.00 57 1014.7
20260902075915 83 140 0.0 3.0 0.00 0.00 0.00 57 1014.7
20260902075414 84 123 3.0 4.0 0.00 0.00 0.00 57 1014.6
20260902074914 84 115 3.0 3.0 0.00 0.00 0.00 56 1014.6
20260902074414 84 142 0.0 0.0 0.00 0.00 0.00 54 1014.6
20260902073915 84 142 0.0 0.0 0.00 0.00 0.00 53 1014.7
20260902073415 85 142 0.0 0.0 0.00 0.00 0.00 53 1014.6
20260902072914 85 92 0.0 2.0 0.00 0.00 0.00 53 1014.5
20260902072414 85 91 0.0 0.0 0.00 0.00 0.00 53 1014.3
20260902071914 85 91 0.0 1.0 0.00 0.00 0.00 52 1014.3
20260902071414 86 91 0.0 3.0 0.00 0.00 0.00 49 1014.3
20260902070914 86 87 1.0 3.0 0.00 0.00 0.00 49 1014.3
20260902070414 86 74 2.0 3.0 0.00 0.00 0.00 49 1014.3
20260902065914 86 101 0.0 2.0 0.00 0.00 0.00 50 1014.3
20260902065414 86 78 2.0 4.0 0.00 0.00 0.00 50 1014.4
20260902064915 85 74 2.0 3.0 0.00 0.00 0.00 52 1014.4
20260902064416 85 107 0.0 2.0 0.00 0.00 0.00 52 1014.4
20260902063914 85 121 2.0 3.0 0.00 0.00 0.00 52 1014.5
20260902063414 85 146 0.0 2.0 0.00 0.00 0.00 51 1014.5
20260902062914 86 150 0.0 2.0 0.00 0.00 0.00 51 1014.5
20260902062414 86 135 1.0 2.0 0.00 0.00 0.00 50 1014.5
20260902061914 86 94 1.0 6.0 0.00 0.00 0.00 50 1014.5
20260902061415 86 109 2.0 6.0 0.00 0.00 0.00 50 1014.5
20260902060914 86 101 5.0 5.0 0.00 0.00 0.00 50 1014.4
20260902060414 86 108 4.0 5.0 0.00 0.00 0.00 50 1014.4
20260902055914 86 112 2.0 4.0 0.00 0.00 0.00 51 1014.4
20260902055414 86 127 3.0 4.0 0.00 0.00 0.00 52 1014.5
20260902054914 85 111 3.0 3.0 0.00 0.00 0.00 53 1014.5
20260902054414 86 136 0.0 2.0 0.00 0.00 0.00 52 1014.6
20260902053915 86 121 2.0 4.0 0.00 0.00 0.00 52 1014.5
20260902053414 86 140 1.0 3.0 0.00 0.00 0.00 52 1014.4
20260902052914 85 115 2.0 3.0 0.00 0.00 0.00 53 1014.5
20260902052416 85 107 3.0 4.0 0.00 0.00 0.00 53 1014.4
20260902051916 85 123 3.0 4.0 0.00 0.00 0.00 54 1014.4
20260902051416 85 125 2.0 4.0 0.00 0.00 0.00 57 1014.4
20260902050914 85 192 4.0 4.0 0.00 0.00 0.00 56 1014.4
20260902050414 85 149 1.0 2.0 0.00 0.00 0.00 56 1014.4
20260902045914 84 135 1.0 2.0 0.00 0.00 0.00 59 1014.4
20260902045414 84 135 0.0 0.0 0.00 0.00 0.00 61 1014.3
20260902044914 84 135 0.0 0.0 0.00 0.00 0.00 62 1014.3
20260902044414 84 135 0.0 0.0 0.00 0.00 0.00 61 1014.3
20260902043914 84 135 0.0 0.0 0.00 0.00 0.00 60 1014.2
20260902043414 84 135 0.0 0.0 0.00 0.00 0.00 60 1014.1
20260902042914 84 135 0.0 0.0 0.00 0.00 0.00 58 1014.1
20260902042414 84 135 0.0 0.0 0.00 0.00 0.00 58 1014.1
20260902041914 84 135 0.0 0.0 0.00 0.00 0.00 58 1014.1
20260902041415 84 135 0.0 0.0 0.00 0.00 0.00 58 1014.1
20260902040916 84 135 0.0 0.0 0.00 0.00 0.00 59 1014.0
20260902040414 85 135 0.0 0.0 0.00 0.00 0.00 61 1013.9
20260902035914 85 135 0.0 0.0 0.00 0.00 0.00 61 1013.8
20260902035414 85 135 0.0 0.0 0.00 0.00 0.00 60 1013.8
20260902034916 85 135 0.0 0.0 0.00 0.00 0.00 61 1013.7
20260902034414 85 135 0.0 0.0 0.00 0.00 0.00 59 1013.6
20260902033915 85 135 0.0 0.0 0.00 0.00 0.00 59 1013.5
20260902033415 86 135 0.0 0.0 0.00 0.00 0.00 57 1013.5
20260902032914 86 135 0.0 0.0 0.00 0.00 0.00 56 1013.4
20260902032414 86 135 0.0 0.0 0.00 0.00 0.00 56 1013.4
20260902031914 86 135 0.0 0.0 0.00 0.00 0.00 55 1013.2
20260902031414 86 135 0.0 0.0 0.00 0.00 0.00 55 1013.2
20260902030914 86 135 0.0 0.0 0.00 0.00 0.00 55 1013.1
20260902030414 87 135 0.0 0.0 0.00 0.00 0.00 56 1013.0
20260902025916 87 234 0.0 0.0 0.00 0.00 0.00 52 1013.0
20260902025415 87 234 0.0 0.0 0.00 0.00 0.00 49 1012.9
20260902024914 87 234 0.0 0.0 0.00 0.00 0.00 49 1012.9
20260902024414 88 234 0.0 0.0 0.00 0.00 0.00 49 1012.8
20260902023914 88 234 0.0 0.0 0.00 0.00 0.00 46 1012.8
20260902023414 88 234 0.0 0.0 0.00 0.00 0.00 46 1012.8
20260902022914 88 232 0.0 0.0 0.00 0.00 0.00 46 1012.7
20260902022414 88 232 0.0 0.0 0.00 0.00 0.00 45 1012.6
20260902021914 88 232 0.0 0.0 0.00 0.00 0.00 45 1012.6
20260902021414 89 232 0.0 0.0 0.00 0.00 0.00 44 1012.5
20260902020916 89 229 0.0 0.0 0.00 0.00 0.00 45 1012.4
20260902020414 90 229 0.0 0.0 0.00 0.00 0.00 43 1012.4
20260902015914 90 229 0.0 0.0 0.00 0.00 0.00 44 1012.3
20260902015415 91 229 0.0 2.0 0.00 0.00 0.00 42 1012.3
20260902014914 92 227 0.0 2.0 0.00 0.00 0.00 42 1012.3
20260902014414 92 218 0.0 3.0 0.00 0.00 0.00 39 1012.3
20260902013915 92 234 2.0 2.0 0.00 0.00 0.00 40 1012.3
20260902013414 93 256 0.0 4.0 0.00 0.00 0.00 38 1012.4
20260902012914 93 239 2.0 5.0 0.00 0.00 0.00 38 1012.5
20260902012414 93 223 2.0 6.0 0.00 0.00 0.00 38 1012.6
20260902011916 93 212 5.0 6.0 0.00 0.00 0.00 39 1012.6
20260902011414 94 159 3.0 7.0 0.00 0.00 0.00 39 1012.6
20260902010914 94 198 2.0 4.0 0.00 0.00 0.00 38 1012.6
20260902010415 94 194 1.0 6.0 0.00 0.00 0.00 38 1012.7
20260902005914 94 160 0.0 4.0 0.00 0.00 0.00 38 1012.7
20260902005416 94 161 1.0 5.0 0.00 0.00 0.00 38 1012.7
20260902004915 94 246 3.0 4.0 0.00 0.00 0.00 38 1012.7
20260902004414 94 203 2.0 2.0 0.00 0.00 0.00 37 1012.7
20260902003914 94 121 1.0 2.0 0.00 0.00 0.00 37 1012.8
20260902003414 95 236 0.0 5.0 0.00 0.00 0.00 37 1012.8
20260902002914 95 233 3.0 6.0 0.00 0.00 0.00 36 1012.9
20260902002414 95 247 4.0 9.0 0.00 0.00 0.00 35 1012.9
20260902001915 95 224 3.0 7.0 0.00 0.00 0.00 36 1012.9
20260902001414 95 231 1.0 9.0 0.00 0.00 0.00 36 1012.9
20260902000914 95 256 9.0 8.0 0.00 0.00 0.00 35 1012.9
20260902000415 95 254 7.0 8.0 0.00 0.00 0.00 37 1013.0
20260901235914 95 125 2.0 9.0 0.00 0.00 0.00 37 1013.0
20260901235414 95 230 9.0 8.0 0.00 0.00 0.00 37 1013.0
20260901234914 95 219 5.0 8.0 0.00 0.00 0.00 38 1013.1
20260901234414 95 208 0.0 8.0 0.00 0.00 0.00 37 1013.0
20260901233914 95 236 4.0 7.0 0.00 0.00 0.00 37 1013.0
20260901233415 94 201 0.0 4.0 0.00 0.00 0.00 37 1013.0
20260901232914 95 240 0.0 6.0 0.00 0.00 0.00 37 1013.1
20260901232414 95 155 4.0 7.0 0.00 0.00 0.00 38 1013.1
20260901231914 95 142 0.0 5.0 0.00 0.00 0.00 36 1013.2
20260901231416 95 167 2.0 7.0 0.00 0.00 0.00 35 1013.2
20260901230914 95 120 3.0 9.0 0.00 0.00 0.00 36 1013.2